Location: Bassano
(45.7667°N, 11.7333°E)
Time: 23:54:42
(UTC+00:00)

ISS - Pass Details

Date: 09 March 2021
Orbit: 418 x 421 km, 51.6° (Epoch: 22 April)

Event Time Altitude Azimuth Distance (km) Brightness Sun altitude
Exits shadow 03:56:15 42° 320° (NW) 608 -3.2 -18.3°
Maximum altitude 03:57:10 65° 24° (NNE) 463 -3.5 -18.2°
Drops below altitude 10° 04:00:31 10° 108° (ESE) 1,495 -0.1 -17.6°
Sets 04:02:37 0° 111° (ESE) 2,356 1.0 -17.2°
